timestamp,wind_dir_avg,wind_spd_avg,wind_spd_max_dir,wind_spd_gust,battery_voltage,lat,long
2023-01-08 00:04:00+00:00,69.0,3.46,70.0,4.38,12.33,47.59359,-54.27349
2023-01-08 00:14:00+00:00,70.0,3.63,66.0,4.24,12.33,47.59359,-54.27349
2023-01-08 00:24:00+00:00,72.0,2.42,73.0,3.95,12.33,47.59359,-54.27349
2023-01-08 00:34:00+00:00,71.0,3.71,73.0,4.27,12.33,47.59359,-54.27349
2023-01-08 00:44:00+00:00,85.0,1.07,70.0,3.47,12.33,47.59359,-54.27349
2023-01-08 00:54:00+00:00,74.0,2.91,59.0,4.23,12.33,47.59359,-54.27349
2023-01-08 01:04:00+00:00,75.0,3.07,70.0,3.97,12.33,47.59359,-54.27349
2023-01-08 01:14:00+00:00,67.0,2.88,73.0,4.12,12.33,47.59359,-54.27349
2023-01-08 01:24:00+00:00,98.0,1.77,94.0,2.93,12.33,47.59359,-54.27349
2023-01-08 01:34:00+00:00,91.0,1.11,84.0,2.09,12.33,47.59359,-54.27349
2023-01-08 01:44:00+00:00,70.0,1.62,83.0,2.81,12.33,47.59359,-54.27349
2023-01-08 01:54:00+00:00,73.0,1.58,89.0,2.94,12.33,47.59359,-54.27349
2023-01-08 02:04:00+00:00,105.0,1.99,113.0,3.35,12.33,47.59359,-54.27349
2023-01-08 02:14:00+00:00,66.0,0.96,70.0,2.06,12.25,47.59359,-54.27349
2023-01-08 02:24:00+00:00,95.0,0.91,94.0,1.71,12.25,47.59359,-54.27349
2023-01-08 02:34:00+00:00,70.0,0.71,80.0,2.23,12.25,47.59359,-54.27349
2023-01-08 02:44:00+00:00,13.0,0.86,44.0,1.8,12.25,47.59359,-54.27349
2023-01-08 02:54:00+00:00,110.0,1.37,110.0,2.32,12.25,47.59359,-54.27349
2023-01-08 03:04:00+00:00,81.0,2.11,81.0,2.99,12.25,47.59359,-54.27349
2023-01-08 03:14:00+00:00,105.0,1.75,102.0,2.64,12.25,47.59359,-54.27349
2023-01-08 03:24:00+00:00,57.0,1.57,67.0,2.46,12.25,47.59359,-54.27349
2023-01-08 03:34:00+00:00,85.0,2.57,87.0,2.96,12.25,47.59359,-54.27349
2023-01-08 03:44:00+00:00,103.0,2.32,109.0,2.82,12.25,47.59359,-54.27349
2023-01-08 03:54:00+00:00,90.0,1.57,74.0,2.3,12.25,47.59359,-54.27349
2023-01-08 04:04:00+00:00,82.0,1.9,100.0,2.58,12.25,47.59359,-54.27349
2023-01-08 04:14:00+00:00,125.0,1.69,121.0,2.14,12.25,47.59359,-54.27349
2023-01-08 04:24:00+00:00,132.0,1.77,121.0,2.79,12.25,47.59359,-54.27349
2023-01-08 04:34:00+00:00,130.0,1.72,139.0,2.36,12.25,47.59359,-54.27349
2023-01-08 04:44:00+00:00,73.0,1.38,77.0,1.54,12.25,47.59359,-54.27349
2023-01-08 04:54:00+00:00,79.0,1.21,82.0,1.61,12.25,47.59359,-54.27349
2023-01-08 05:04:00+00:00,12.0,0.32,359.0,0.48,12.25,47.59359,-54.27349
2023-01-08 05:14:01+00:00,55.0,1.26,68.0,1.71,12.17,47.59359,-54.27349
2023-01-08 05:24:01+00:00,5.0,1.84,17.0,2.25,12.17,47.59359,-54.27349
2023-01-08 05:34:01+00:00,20.0,0.88,3.0,1.41,12.17,47.59359,-54.27349
2023-01-08 05:44:01+00:00,354.0,1.24,359.0,1.72,12.17,47.59359,-54.27349
2023-01-08 05:54:01+00:00,109.0,1.26,120.0,1.79,12.17,47.59359,-54.27349
2023-01-08 06:04:01+00:00,84.0,1.12,95.0,1.43,12.17,47.59359,-54.27349
2023-01-08 06:14:00+00:00,294.0,0.55,300.0,1.01,12.17,47.59359,-54.27349
2023-01-08 06:24:00+00:00,39.0,0.61,54.0,1.1,12.17,47.59359,-54.27349
2023-01-08 06:34:00+00:00,212.0,0.31,270.0,0.98,12.17,47.59359,-54.27349
2023-01-08 06:44:00+00:00,36.0,1.89,44.0,2.33,12.17,47.59359,-54.27349
2023-01-08 06:54:00+00:00,93.0,1.8,96.0,2.14,12.17,47.59359,-54.27349
2023-01-08 07:04:00+00:00,139.0,1.22,129.0,1.86,12.17,47.59359,-54.27349
2023-01-08 07:14:00+00:00,251.0,1.45,255.0,1.78,12.17,47.59359,-54.27349
2023-01-08 07:24:00+00:00,339.0,3.06,336.0,3.71,12.17,47.59359,-54.27349
2023-01-08 07:34:00+00:00,348.0,3.4,348.0,3.85,12.17,47.59359,-54.27349
2023-01-08 07:44:00+00:00,350.0,3.7,348.0,4.07,12.17,47.59359,-54.27349
2023-01-08 07:54:00+00:00,353.0,3.43,356.0,3.92,12.17,47.59359,-54.27349
2023-01-08 08:04:00+00:00,355.0,3.14,347.0,3.58,12.17,47.59359,-54.27349
2023-01-08 08:14:00+00:00,15.0,2.75,10.0,3.11,12.17,47.59359,-54.27349
2023-01-08 08:24:00+00:00,11.0,2.36,11.0,2.78,12.17,47.59359,-54.27349
2023-01-08 08:34:00+00:00,10.0,2.02,21.0,2.32,12.17,47.59359,-54.27349
2023-01-08 08:44:00+00:00,46.0,1.72,44.0,1.92,12.17,47.59359,-54.27349
2023-01-08 08:54:00+00:00,41.0,1.17,49.0,1.48,12.17,47.59359,-54.27349
2023-01-08 09:04:00+00:00,20.0,1.31,19.0,1.54,12.17,47.59359,-54.27349
2023-01-08 09:14:01+00:00,16.0,1.47,26.0,1.75,12.09,47.59359,-54.27349
2023-01-08 09:24:01+00:00,326.0,0.85,331.0,1.15,12.09,47.59359,-54.27349
2023-01-08 09:34:01+00:00,321.0,0.95,325.0,1.26,12.09,47.59359,-54.27349
2023-01-08 09:44:01+00:00,17.0,1.22,7.0,1.55,12.09,47.59359,-54.27349
2023-01-08 09:54:01+00:00,46.0,1.98,53.0,2.31,12.09,47.59359,-54.27349
2023-01-08 10:04:01+00:00,47.0,1.67,47.0,2.02,12.09,47.59359,-54.27349
2023-01-08 10:14:01+00:00,35.0,1.95,42.0,2.38,12.09,47.59359,-54.27349
2023-01-08 10:24:01+00:00,353.0,2.5,0.0,2.99,12.09,47.59359,-54.27349
2023-01-08 10:34:01+00:00,7.0,2.46,22.0,2.78,12.09,47.59359,-54.27349
2023-01-08 10:44:01+00:00,24.0,2.69,25.0,3.01,12.09,47.59359,-54.27349
2023-01-08 10:54:01+00:00,12.0,2.47,25.0,3.0,12.09,47.59359,-54.27349
2023-01-08 11:04:01+00:00,359.0,2.5,356.0,3.01,12.09,47.59359,-54.27349
2023-01-08 11:14:00+00:00,347.0,2.64,353.0,3.32,12.09,47.59359,-54.27349
2023-01-08 11:24:00+00:00,346.0,2.07,344.0,2.44,12.09,47.59359,-54.27349
2023-01-08 11:34:00+00:00,23.0,1.4,29.0,1.79,12.09,47.59359,-54.27349
2023-01-08 11:44:00+00:00,1.0,1.69,358.0,2.19,12.09,47.59359,-54.27349
2023-01-08 11:54:00+00:00,351.0,1.55,346.0,1.86,12.09,47.59359,-54.27349
2023-01-08 12:04:00+00:00,343.0,1.11,323.0,1.47,12.09,47.59359,-54.27349
2023-01-08 12:14:01+00:00,1.0,0.36,352.0,0.79,12.09,47.59359,-54.27349
2023-01-08 12:24:01+00:00,305.0,0.68,286.0,1.01,12.09,47.59359,-54.27349
2023-01-08 12:34:01+00:00,243.0,0.81,245.0,1.26,12.09,47.59359,-54.27349
2023-01-08 12:44:01+00:00,219.0,0.48,223.0,0.82,12.09,47.59359,-54.27349
2023-01-08 12:54:01+00:00,68.0,0.46,59.0,0.93,12.09,47.59359,-54.27349
2023-01-08 13:04:01+00:00,4.0,1.36,16.0,1.64,12.09,47.59359,-54.27349
2023-01-08 13:14:00+00:00,236.0,0.65,245.0,0.98,12.17,47.59359,-54.27349
2023-01-08 13:24:00+00:00,183.0,1.65,209.0,2.03,12.17,47.59359,-54.27349
2023-01-08 13:34:00+00:00,197.0,1.16,185.0,1.65,12.17,47.59359,-54.27349
2023-01-08 13:44:00+00:00,204.0,1.54,214.0,1.93,12.17,47.59359,-54.27349
2023-01-08 13:54:00+00:00,209.0,2.23,210.0,2.77,12.17,47.59359,-54.27349
2023-01-08 14:04:00+00:00,220.0,2.83,219.0,3.13,12.17,47.59359,-54.27349
2023-01-08 15:14:00+00:00,214.0,2.17,220.0,2.48,12.57,47.59359,-54.27349
2023-01-08 15:24:00+00:00,206.0,2.35,210.0,2.58,12.57,47.59359,-54.27349
2023-01-08 15:34:00+00:00,200.0,3.8,205.0,4.34,12.57,47.59359,-54.27349
2023-01-08 15:44:00+00:00,203.0,3.63,207.0,4.19,12.57,47.59359,-54.27349
2023-01-08 15:54:00+00:00,202.0,3.46,208.0,4.1,12.57,47.59359,-54.27349
2023-01-08 16:04:00+00:00,217.0,3.51,214.0,4.07,12.57,47.59359,-54.27349
2023-01-08 16:14:00+00:00,214.0,3.34,210.0,3.99,13.13,47.59359,-54.27349
2023-01-08 16:24:00+00:00,198.0,2.69,203.0,3.26,13.13,47.59359,-54.27349
2023-01-08 16:34:00+00:00,205.0,2.83,205.0,3.19,13.13,47.59359,-54.27349
2023-01-08 16:44:00+00:00,221.0,2.41,221.0,2.73,13.13,47.59359,-54.27349
2023-01-08 16:54:00+00:00,209.0,2.85,212.0,3.21,13.13,47.59359,-54.27349
2023-01-08 17:04:00+00:00,232.0,3.74,234.0,4.15,13.13,47.59359,-54.27349
2023-01-08 17:14:01+00:00,233.0,2.9,240.0,3.38,13.05,47.59359,-54.27349
2023-01-08 17:24:01+00:00,228.0,3.87,218.0,4.84,13.05,47.59359,-54.27349
2023-01-08 17:34:01+00:00,215.0,5.44,217.0,5.9,13.05,47.59359,-54.27349
2023-01-08 17:44:01+00:00,214.0,6.0,213.0,6.83,13.05,47.59359,-54.27349
2023-01-08 17:54:01+00:00,207.0,5.13,210.0,5.66,13.05,47.59359,-54.27349
2023-01-08 18:04:01+00:00,195.0,5.3,207.0,5.85,13.05,47.59359,-54.27349
2023-01-08 18:14:00+00:00,210.0,5.62,210.0,6.3,12.97,47.59359,-54.27349
2023-01-08 18:24:00+00:00,215.0,5.49,214.0,6.53,12.97,47.59359,-54.27349
2023-01-08 18:34:00+00:00,210.0,5.22,214.0,6.02,12.97,47.59359,-54.27349
2023-01-08 18:44:00+00:00,179.0,4.93,175.0,5.56,12.97,47.59359,-54.27349
2023-01-08 18:54:00+00:00,173.0,4.19,203.0,4.85,12.97,47.59359,-54.27349
2023-01-08 19:04:00+00:00,181.0,3.7,177.0,4.23,12.97,47.59359,-54.27349
2023-01-08 19:14:01+00:00,170.0,3.49,167.0,3.89,12.65,47.59359,-54.27349
2023-01-08 19:24:01+00:00,173.0,3.42,170.0,4.1,12.65,47.59359,-54.27349
2023-01-08 19:34:01+00:00,205.0,3.36,211.0,3.73,12.65,47.59359,-54.27349
2023-01-08 19:44:01+00:00,172.0,3.32,201.0,3.87,12.65,47.59359,-54.27349
2023-01-08 19:54:01+00:00,175.0,3.24,167.0,3.81,12.65,47.59359,-54.27349
2023-01-08 20:04:01+00:00,180.0,3.41,183.0,4.26,12.65,47.59359,-54.27349
2023-01-08 20:14:00+00:00,181.0,3.48,183.0,3.8,12.41,47.59359,-54.27349
2023-01-08 20:24:00+00:00,191.0,3.16,187.0,3.7,12.41,47.59359,-54.27349
2023-01-08 20:34:00+00:00,138.0,2.32,129.0,2.77,12.41,47.59359,-54.27349
2023-01-08 20:44:00+00:00,194.0,2.61,161.0,3.34,12.41,47.59359,-54.27349
2023-01-08 20:54:00+00:00,161.0,1.81,232.0,3.02,12.41,47.59359,-54.27349
2023-01-08 21:04:00+00:00,237.0,1.65,245.0,3.46,12.41,47.59359,-54.27349
2023-01-08 21:14:00+00:00,298.0,5.53,292.0,9.13,12.41,47.59359,-54.27349
2023-01-08 21:24:00+00:00,295.0,7.58,290.0,10.34,12.41,47.59359,-54.27349
2023-01-08 21:34:00+00:00,294.0,9.28,294.0,11.35,12.41,47.59359,-54.27349
2023-01-08 21:44:00+00:00,305.0,10.34,305.0,11.86,12.41,47.59359,-54.27349
2023-01-08 21:54:00+00:00,307.0,10.92,313.0,12.64,12.41,47.59359,-54.27349
2023-01-08 22:04:00+00:00,307.0,10.43,303.0,11.86,12.41,47.59359,-54.27349
2023-01-08 22:14:01+00:00,317.0,10.53,321.0,12.32,12.33,47.59359,-54.27349
2023-01-08 22:24:01+00:00,314.0,8.75,301.0,11.35,12.33,47.59359,-54.27349
2023-01-08 22:34:01+00:00,323.0,9.02,322.0,11.1,12.33,47.59359,-54.27349
2023-01-08 22:44:01+00:00,327.0,7.02,325.0,8.16,12.33,47.59359,-54.27349
2023-01-08 22:54:01+00:00,321.0,7.37,319.0,9.12,12.33,47.59359,-54.27349
2023-01-08 23:04:01+00:00,317.0,6.14,322.0,7.03,12.33,47.59359,-54.27349
2023-01-08 23:14:00+00:00,311.0,6.41,299.0,8.7,12.33,47.59359,-54.27349
2023-01-08 23:24:00+00:00,309.0,7.11,298.0,9.04,12.33,47.59359,-54.27349
2023-01-08 23:34:00+00:00,310.0,6.4,308.0,8.38,12.33,47.59359,-54.27349
2023-01-08 23:44:00+00:00,302.0,7.67,297.0,10.13,12.33,47.59359,-54.27349
2023-01-08 23:54:00+00:00,309.0,7.32,320.0,9.37,12.33,47.59359,-54.27349
